Track STARLINK-4041 now! 10-day predictions STARLINK-4041 is classified as:
1 52695U 22053AR 22187.25001157 -.01059822 00000-0 -22808-1 0 9990 2 52695 53.2173 57.7164 0001342 45.0957 320.5999 15.46950381 7983